カタログに戻る

BRO-6

運用中科学SSO
NORAD 52422·PAYLOAD·🇫🇷 France

打ち上げ May 2, 2022 から Rocket Lab Launch Complex 1

Loading…

次のパス (今後24時間)

TLE

最新Source: Space-Track

元期: Sep 14, 2026, 12:28 UTC

1 52422U 22047AE  26257.51976332  .00039531  00000-0  53674-3 0  9997
2 52422  97.3364 350.7153 0005266 102.4505 257.7340 15.57515449245026

AllMySatでBRO-6をリアルタイム追跡

Download on the App Store